Trenton, NJ

1:18 AM EDT on July 27, 2017 (GMT -0400)
Trenton Mercer

Weather History for KTTN - January, 2011

Change the Weather History Date:

Monday, January 10, 2011

  Actual Average Record
Temperature  
Mean Temperature 28 °F 31 °F  
Max Temperature 33 °F 39 °F 65 °F (2016)
Min Temperature 22 °F 23 °F -2 °F (1875)
Degree Days  
Heating Degree Days 37 34  
Month to date heating degree days 338 339  
Since 1 July heating degree days 2163 2234  
Cooling Degree Days 0 0  
Month to date cooling degree days 0 0  
Year to date cooling degree days 0 0  
Moisture  
Dew Point 11 °F    
Average Humidity 48    
Maximum Humidity 55    
Minimum Humidity 41    
Precipitation  
Precipitation 0.00 in 0.10 in 1.56 in (2016)
Month to date precipitation 0.24 1.14  
Year to date precipitation 0.24 1.14  
Sea Level Pressure  
Sea Level Pressure 30.21 in    
Wind  
Wind Speed 8 mph (NW)    
Max Wind Speed 16 mph    
Max Gust Speed 23 mph    
Visibility 10 miles    
Events      
T = Trace of Precipitation, MM = Missing Value Source: NWS Daily Summary

Daily Weather History Graph

Daily Weather History Graph

Search for Another Location

Airport or City:

Trip Planner

Search our weather history database for the weather conditions in past years. The results will help you decide how hot, cold, wet, or windy it might be!

Date:

Astronomy

Jan. 10, 2011 Rise Set
Actual Time 7:21 AM EST 4:52 PM EST
Civil Twilight 6:51 AM EST 5:22 PM EST
Nautical Twilight 6:17 AM EST 5:56 PM EST
Astronomical Twilight 5:44 AM EST 6:28 PM EST
Moon 10:15 AM EST (1/10) 11:17 PM EST (1/10)
Length of Visible Light 10h 30m
Length of Day
9h 30m
Waxing Crescent, 34% of the Moon is Illuminated
Jan 10
Waxing Crescent
Jan 12
First Quarter
Jan 19
Full
Jan 26
Last Quarter
Feb 2
New

Hourly Weather History & Observations

Time (EST) Temp. Windchill Dew Point Humidity Pressure Visibility Wind Dir Wind Speed Gust Speed Precip Events Conditions
12:53 AM 26.1 °F 15.6 °F 9.0 °F 49% 30.16 in 10.0 mi NNW 11.5 mph 18.4 mph N/A   Clear
1:53 AM 25.0 °F 17.1 °F 10.0 °F 53% 30.14 in 10.0 mi NNW 6.9 mph 17.3 mph N/A   Clear
2:53 AM 25.0 °F 16.3 °F 10.0 °F 53% 30.17 in 10.0 mi NW 8.1 mph - N/A   Clear
3:53 AM 24.1 °F 16.0 °F 10.0 °F 55% 30.17 in 10.0 mi NW 6.9 mph - N/A   Clear
4:53 AM 24.1 °F 14.4 °F 9.0 °F 53% 30.20 in 10.0 mi NW 9.2 mph - N/A   Clear
5:53 AM 23.0 °F 14.7 °F 9.0 °F 55% 30.22 in 10.0 mi NNW 6.9 mph - N/A   Clear
6:53 AM 23.0 °F 13.1 °F 9.0 °F 55% 30.24 in 10.0 mi NNW 9.2 mph - N/A   Clear
7:53 AM 23.0 °F 13.1 °F 9.0 °F 55% 30.24 in 10.0 mi NNW 9.2 mph 23.0 mph N/A   Clear
8:53 AM 25.0 °F 13.6 °F 10.0 °F 53% 30.23 in 10.0 mi NW 12.7 mph 19.6 mph N/A   Clear
9:53 AM 27.0 °F 17.3 °F 10.0 °F 49% 30.24 in 10.0 mi North 10.4 mph - N/A   Clear
10:53 AM 28.9 °F 20.4 °F 10.9 °F 47% 30.25 in 10.0 mi NW 9.2 mph - N/A   Clear
11:53 AM 30.0 °F 21.1 °F 12.0 °F 47% 30.24 in 10.0 mi NW 10.4 mph 18.4 mph N/A   Clear
12:53 PM 30.9 °F 19.8 °F 12.0 °F 46% 30.19 in 10.0 mi NNW 16.1 mph 21.9 mph N/A   Clear
1:53 PM 32.0 °F 22.5 °F 12.0 °F 44% 30.18 in 10.0 mi NNW 12.7 mph 23.0 mph N/A   Clear
2:53 PM 33.1 °F 26.9 °F 12.9 °F 43% 30.20 in 10.0 mi WNW 6.9 mph - N/A   Clear
3:53 PM 33.1 °F 24.9 °F 14.0 °F 46% 30.20 in 10.0 mi NNW 10.4 mph - N/A   Clear
4:53 PM 32.0 °F 24.2 °F 12.9 °F 45% 30.21 in 10.0 mi NNW 9.2 mph - N/A   Clear
5:53 PM 30.0 °F 24.1 °F 12.9 °F 49% 30.22 in 10.0 mi West 5.8 mph - N/A   Clear
6:53 PM 28.9 °F 23.9 °F 12.9 °F 51% 30.25 in 10.0 mi West 4.6 mph - N/A   Clear
7:53 PM 28.9 °F 22.8 °F 12.9 °F 51% 30.25 in 10.0 mi NW 5.8 mph - N/A   Clear
8:53 PM 28.0 °F 24.2 °F 12.9 °F 53% 30.23 in 10.0 mi NNW 3.5 mph - N/A   Clear
9:53 PM 28.0 °F - 12.9 °F 53% 30.23 in 10.0 mi Calm Calm - N/A   Clear
10:53 PM 26.1 °F 19.4 °F 12.9 °F 58% 30.22 in 10.0 mi NNW 5.8 mph - N/A   Clear
11:53 PM 24.1 °F - 12.0 °F 60% 30.22 in 10.0 mi Calm Calm - N/A   Clear